Regional Weather Roundup
Issued by NWS

Home | Current Version | Previous Version | Text Only | Print | Product List | Glossary Off
Versions: 1 2 3 4 5 6 7 8 9 10 11 12 13 14 15 16 17 18 19 20 21 22 23 24 25 26 27 28 29 30 31 32 33 34 35 36 37 38 39 40 41 42 43 44 45 46 47 48 49 50

301
ASUS45 KPSR 171610
RWRAZ

ARIZONA HOURLY REGIONAL WEATHER ROUNDUP
NATIONAL WEATHER SERVICE PHOENIX AZ
900 AM MST TUE JAN 17 2017

NOTE: FAIR INDICATES FEW OR NO CLOUDS BELOW 12,000 FEET WITH NO
SIGNIFICANT WEATHER AND/OR OBSTRUCTIONS TO VISIBILITY.

AZZ001>003-036-171700-
NORTHWEST ARIZONA

CITY           SKY/WX    TMP DP  RH WIND       PRES   REMARKS
BULLHEAD CITY  SUNNY     50  21  32 N24       30.13R
KINGMAN        SUNNY     36  20  52 E6        30.13R WCI  31
$$

AZZ004>008-015-016-018-171700-
NORTH CENTRAL ARIZONA

CITY           SKY/WX    TMP DP  RH WIND       PRES   REMARKS
GRAND CANYON   SUNNY     24  22  91 CALM      30.13R
WILLIAMS       CLOUDY    30  25  80 CALM      30.10R
PRESCOTT       CLOUDY    35  35 100 S3        30.11R FOG
FLAGSTAFF      CLOUDY    30  22  72 E7        30.11R WCI  23
PAYSON         CLOUDY    39  28  65 NE3       30.13R
$$

AZZ009>014-017-171700-
NORTHEAST ARIZONA

CITY           SKY/WX    TMP DP  RH WIND       PRES   REMARKS
WINSLOW        CLOUDY    35  32  88 NW5       30.15R WCI  31
SAINT JOHNS    CLOUDY    37  35  92 NW6       30.12R WCI  32
SHOW LOW       CLOUDY    30  27  86 N5        30.14R WCI  25
$$

AZZ023-171700-
GREATER PHOENIX AREA

CITY           SKY/WX    TMP DP  RH WIND       PRES   REMARKS
PHOENIX        MOSUNNY   49  43  80 E3        30.06R
BUCKEYE        MOSUNNY   45  45 100 CALM      30.08R
GLENDALE       MOSUNNY   46  46 100 CALM      30.08R
LUKE AFB       MOSUNNY   49  43  80 NE5       30.06R
DEER VALLEY    MOSUNNY   48  42  80 CALM      30.06R
SCOTTSDALE     MOSUNNY   50  42  74 CALM      30.07R
MESA-FALCON    MOSUNNY  N/A N/A N/A E9        30.04R
MESA-GATEWAY   MOSUNNY   45  41  87 E5        30.08R
CHANDLER       SUNNY     45  45 100 CALM      30.07R
$$

AZZ027-028-171700-
SOUTHWEST MARICOPA COUNTY AND PINAL COUNTY

CITY           SKY/WX    TMP DP  RH WIND       PRES   REMARKS
CASA GRANDE    SUNNY     43  42  97 CALM      30.08R
$$

AZZ503-504-507>509-171700-
SOUTHEAST ARIZONA

CITY           SKY/WX    TMP DP  RH WIND       PRES   REMARKS
TUCSON         SUNNY     43  39  86 SE6       30.08R
DAVIS-MONTHAN  SUNNY     44  44  99 S5        30.07R
RYAN FIELD     SUNNY     43  39  87 CALM      30.08R
NOGALES        FOG       37  37 100 S6        30.07R VSB 1/4 WCI  32
SIERRA VISTA   SUNNY     41  39  91 CALM      30.09R
DOUGLAS        PTSUNNY   40  38  93 N6        30.08R
SAFFORD        PTSUNNY   38  37  97 SE5       30.09R WCI  34
$$

AZZ020-021-025-026-031-171700-
SOUTHWEST ARIZONA

CITY           SKY/WX    TMP DP  RH WIND       PRES   REMARKS
YUMA           MOSUNNY   52  28  39 N6        30.10R
$$

CAZ031-033-041-043-047-048-061-171700-
SOUTHERN CALIFORNIA

CITY           SKY/WX    TMP DP  RH WIND       PRES   REMARKS
DOWNTOWN L.A.  SUNNY     49  39  68 CALM      30.11R
L.A. AIRPORT   SUNNY     50  41  71 E3        30.12R
SAN DIEGO      MOSUNNY   54  48  80 NE6       30.12R
BURBANK        SUNNY     44  34  67 SW3       30.11R
ONTARIO        SUNNY     46  38  73 N3        30.11R
RIVERSIDE      SUNNY     36  33  89 CALM      30.12R
PALM SPRINGS   SUNNY     49  30  48 NW9       30.13R
EL CENTRO NAS  MOSUNNY   45  39  79 W5        30.13R
IMPERIAL       SUNNY     46  40  79 SW3       30.10R
BLYTHE         SUNNY     46  32  58 SW6       30.12R
NEEDLES        SUNNY     51  23  33 N12       30.14R
$$

NVZ020-UTZ003-171700-
SOUTHERN NEVADA-UTAH

CITY           SKY/WX    TMP DP  RH WIND       PRES   REMARKS
LAS VEGAS      SUNNY     42  23  46 CALM      30.17R
SALT LAKE CITY MOSUNNY   22  19  89 N3        30.30R
$$

NMZ009-TXZ055-171700-
NEW MEXICO-WEST TEXAS

CITY           SKY/WX    TMP DP  RH WIND       PRES   REMARKS
ALBUQUERQUE    MOSUNNY   39  36  89 NW7       30.16R WCI  34
EL PASO        PTSUNNY   43  35  73 N13       30.10R
$$


........................KEY........................
SKY/WX - SKY CONDITION/WEATHER
TMP    - TEMPERATURE IN FAHRENHEIT
DP     - DEW POINT IN FAHRENHEIT
RH     - RELATIVE HUMIDITY IN PERCENT
WIND   - DIRECTION AND SPEED IN MILES PER HOUR (MPH)
VRB    - VARIABLE WIND DIRECTION
PRES   - MEAN SEA LEVEL PRESSURE IN INCHES OF MERCURY
         F - FALLING PRESSURE   R - RISING PRESSURE
         S - STEADY PRESSURE
VSB    - VISIBILITY IN MILES
HX     - HEAT INDEX IN FAHRENHEIT
WCI    - WIND CHILL INDEX IN FAHRENHEIT
TC     - TEMPERATURE IN CELSIUS WHICH IS ALSO KNOWN AS
         TEMPERATURE IN CENTIGRADE
AFB    - AIR FORCE BASE
         LUKE AFB IS LUKE AIR FORCE BASE
         DAVIS-MONTHAN IS DAVIS-MONTHAN AIR FORCE BASE
NAS    - NAVAL AIR STATION
         EL CENTRO NAS IS EL CENTRO NAVAL AIR STATION
N/A    - NOT AVAILABLE





USA.gov is the U.S. government's official web portal to all federal, state and local government web resources and services.